| time (UTC) | temp F | wind direction | speed MPH | gust MPH | rain 1hr in | rain 24hr in | rain mn in | humidity % | barometer mb |
| 20260504022327 | 69 | 0 | 3.0 | 8.0 | 0.00 | 0.00 | 0.00 | 29 | 1010.1 |
| 20260504021802 | 69 | 0 | 3.0 | 10.0 | 0.00 | 0.00 | 0.00 | 28 | 1010.1 |
| 20260504021732 | 70 | 0 | 4.0 | 10.0 | 0.00 | 0.00 | 0.00 | 28 | 1010.1 |
| 20260504021337 | 70 | 0 | 4.0 | 10.0 | 0.00 | 0.00 | 0.00 | 28 | 1010.1 |
| 20260504020731 | 70 | 0 | 5.0 | 9.0 | 0.00 | 0.00 | 0.00 | 27 | 1010.1 |
| 20260504020208 | 71 | 0 | 5.0 | 10.0 | 0.00 | 0.00 | 0.00 | 27 | 1010.0 |
| 20260504015652 | 71 | 0 | 5.0 | 10.0 | 0.00 | 0.00 | 0.00 | 26 | 1010.0 |
| 20260504015525 | 71 | 0 | 4.0 | 10.0 | 0.00 | 0.00 | 0.00 | 26 | 1010.0 |
| 20260504015445 | 71 | 0 | 4.0 | 10.0 | 0.00 | 0.00 | 0.00 | 26 | 1010.0 |
| 20260504014645 | 72 | 0 | 4.0 | 10.0 | 0.00 | 0.00 | 0.00 | 25 | 1009.9 |
| 20260504014415 | 72 | 0 | 4.0 | 11.0 | 0.00 | 0.00 | 0.00 | 25 | 1010.0 |
| 20260504014251 | 72 | 0 | 4.0 | 11.0 | 0.00 | 0.00 | 0.00 | 25 | 1010.0 |
| 20260504013646 | 73 | 0 | 3.0 | 11.0 | 0.00 | 0.00 | 0.00 | 24 | 1010.0 |
| 20260504013141 | 74 | 0 | 2.0 | 5.0 | 0.00 | 0.00 | 0.00 | 23 | 1010.0 |
| 20260504012612 | 75 | 0 | 1.0 | 4.0 | 0.00 | 0.00 | 0.00 | 23 | 1010.0 |
| 20260504012113 | 75 | 0 | 2.0 | 4.0 | 0.00 | 0.00 | 0.00 | 22 | 1009.9 |
| 20260504011601 | 76 | 0 | 2.0 | 4.0 | 0.00 | 0.00 | 0.00 | 21 | 1010.0 |
| 20260504011055 | 76 | 0 | 2.0 | 5.0 | 0.00 | 0.00 | 0.00 | 21 | 1010.0 |
| 20260504010553 | 77 | 0 | 2.0 | 5.0 | 0.00 | 0.00 | 0.00 | 21 | 1009.9 |
| 20260504010146 | 78 | 46 | 2.0 | 6.0 | 0.00 | 0.00 | 0.00 | 20 | 1010.1 |
| 20260504010110 | 77 | 0 | 2.0 | 4.0 | 0.00 | 0.00 | 0.00 | 20 | 1010.0 |
| 20260504005830 | 77 | 0 | 2.0 | 6.0 | 0.00 | 0.00 | 0.00 | 19 | 1010.0 |
| 20260504005627 | 77 | 0 | 2.0 | 6.0 | 0.00 | 0.00 | 0.00 | 19 | 1010.0 |
| 20260504005419 | 78 | 46 | 2.0 | 6.0 | 0.00 | 0.00 | 0.00 | 20 | 1010.1 |
| 20260504004713 | 78 | 49 | 3.0 | 7.0 | 0.00 | 0.00 | 0.00 | 20 | 1010.2 |
| 20260504004557 | 78 | 49 | 3.0 | 7.0 | 0.00 | 0.00 | 0.00 | 20 | 1010.2 |
| 20260504003949 | 77 | 346 | 3.0 | 7.0 | 0.00 | 0.00 | 0.00 | 19 | 1010.2 |
| 20260504003424 | 77 | 0 | 3.0 | 8.0 | 0.00 | 0.00 | 0.00 | 20 | 1010.2 |
| 20260504002858 | 77 | 0 | 2.0 | 8.0 | 0.00 | 0.00 | 0.00 | 20 | 1010.2 |
| 20260504002618 | 78 | 0 | 2.0 | 4.0 | 0.00 | 0.00 | 0.00 | 20 | 1010.3 |
| 20260504002457 | 78 | 0 | 2.0 | 4.0 | 0.00 | 0.00 | 0.00 | 20 | 1010.3 |
| 20260504002117 | 78 | 0 | 2.0 | 8.0 | 0.00 | 0.00 | 0.00 | 19 | 1010.4 |
| 20260504001952 | 78 | 0 | 2.0 | 8.0 | 0.00 | 0.00 | 0.00 | 19 | 1010.4 |
| 20260504001332 | 78 | 0 | 3.0 | 8.0 | 0.00 | 0.00 | 0.00 | 18 | 1010.3 |
| 20260504001041 | 79 | 0 | 3.0 | 6.0 | 0.00 | 0.00 | 0.00 | 18 | 1010.4 |
| 20260504000911 | 79 | 0 | 3.0 | 6.0 | 0.00 | 0.00 | 0.00 | 18 | 1010.4 |
| 20260504000249 | 79 | 0 | 3.0 | 5.0 | 0.00 | 0.00 | 0.00 | 17 | 1010.4 |
| 20260504000046 | 80 | 0 | 3.0 | 9.0 | 0.00 | 0.00 | 0.00 | 17 | 1010.4 |
| 20260504000011 | 80 | 0 | 3.0 | 9.0 | 0.00 | 0.00 | 0.00 | 17 | 1010.4 |
| 20260503235215 | 81 | 60 | 2.0 | 9.0 | 0.00 | 0.00 | 0.00 | 16 | 1010.5 |
| 20260503234645 | 82 | 17 | 1.0 | 7.0 | 0.00 | 0.00 | 0.00 | 15 | 1010.4 |
| 20260503234144 | 82 | 16 | 2.0 | 7.0 | 0.00 | 0.00 | 0.00 | 17 | 1010.5 |
| 20260503233639 | 82 | 326 | 2.0 | 5.0 | 0.00 | 0.00 | 0.00 | 17 | 1010.5 |
| 20260503233136 | 82 | 304 | 2.0 | 5.0 | 0.00 | 0.00 | 0.00 | 16 | 1010.5 |
| 20260503232620 | 82 | 65 | 3.0 | 7.0 | 0.00 | 0.00 | 0.00 | 15 | 1010.5 |
| 20260503232119 | 82 | 57 | 2.0 | 6.0 | 0.00 | 0.00 | 0.00 | 16 | 1010.5 |
| 20260503231549 | 82 | 57 | 2.0 | 6.0 | 0.00 | 0.00 | 0.00 | 17 | 1010.6 |
| 20260503231307 | 82 | 57 | 2.0 | 6.0 | 0.00 | 0.00 | 0.00 | 17 | 1010.6 |
| 20260503231149 | 82 | 57 | 2.0 | 6.0 | 0.00 | 0.00 | 0.00 | 17 | 1010.6 |
| 20260503230524 | 81 | 51 | 4.0 | 11.0 | 0.00 | 0.00 | 0.00 | 17 | 1010.6 |
| 20260503225951 | 81 | 57 | 3.0 | 11.0 | 0.00 | 0.00 | 0.00 | 15 | 1010.6 |
| 20260503225447 | 82 | 59 | 3.0 | 6.0 | 0.00 | 0.00 | 0.00 | 17 | 1010.6 |
| 20260503224947 | 82 | 61 | 3.0 | 10.0 | 0.00 | 0.00 | 0.00 | 16 | 1010.8 |
| 20260503224702 | 83 | 61 | 3.0 | 10.0 | 0.00 | 0.00 | 0.00 | 17 | 1010.8 |
| 20260503224540 | 83 | 61 | 3.0 | 10.0 | 0.00 | 0.00 | 0.00 | 17 | 1010.8 |
| 20260503223941 | 83 | 119 | 2.0 | 9.0 | 0.00 | 0.00 | 0.00 | 16 | 1010.8 |
| 20260503223432 | 83 | 87 | 2.0 | 9.0 | 0.00 | 0.00 | 0.00 | 16 | 1010.9 |
| 20260503222933 | 82 | 86 | 4.0 | 10.0 | 0.00 | 0.00 | 0.00 | 16 | 1010.9 |
| 20260503222413 | 83 | 89 | 3.0 | 10.0 | 0.00 | 0.00 | 0.00 | 16 | 1011.0 |
| 20260503221906 | 84 | 336 | 1.0 | 5.0 | 0.00 | 0.00 | 0.00 | 15 | 1011.0 |
| 20260503221402 | 84 | 49 | 2.0 | 4.0 | 0.00 | 0.00 | 0.00 | 16 | 1011.0 |
| 20260503220859 | 83 | 49 | 2.0 | 6.0 | 0.00 | 0.00 | 0.00 | 16 | 1011.2 |
| 20260503220401 | 83 | 44 | 1.0 | 6.0 | 0.00 | 0.00 | 0.00 | 16 | 1011.4 |
| 20260503215857 | 83 | 49 | 2.0 | 5.0 | 0.00 | 0.00 | 0.00 | 16 | 1011.5 |
| 20260503215402 | 83 | 333 | 3.0 | 7.0 | 0.00 | 0.00 | 0.00 | 17 | 1011.6 |
| 20260503215338 | 83 | 41 | 2.0 | 6.0 | 0.00 | 0.00 | 0.00 | 17 | 1011.5 |
| 20260503215304 | 83 | 333 | 3.0 | 7.0 | 0.00 | 0.00 | 0.00 | 17 | 1011.6 |
| 20260503214545 | 83 | 57 | 3.0 | 9.0 | 0.00 | 0.00 | 0.00 | 18 | 1011.7 |
| 20260503214418 | 83 | 57 | 3.0 | 9.0 | 0.00 | 0.00 | 0.00 | 18 | 1011.7 |
| 20260503213811 | 84 | 69 | 1.0 | 6.0 | 0.00 | 0.00 | 0.00 | 17 | 1011.9 |
| 20260503213311 | 84 | 71 | 1.0 | 4.0 | 0.00 | 0.00 | 0.00 | 18 | 1011.9 |
| 20260503212759 | 83 | 79 | 2.0 | 7.0 | 0.00 | 0.00 | 0.00 | 20 | 1011.9 |
| 20260503212305 | 81 | 80 | 3.0 | 9.0 | 0.00 | 0.00 | 0.00 | 19 | 1011.9 |
| 20260503211757 | 81 | 88 | 4.0 | 7.0 | 0.00 | 0.00 | 0.00 | 19 | 1012.1 |
| 20260503211257 | 81 | 37 | 3.0 | 9.0 | 0.00 | 0.00 | 0.00 | 18 | 1012.1 |
| 20260503211014 | 82 | 52 | 2.0 | 7.0 | 0.00 | 0.00 | 0.00 | 20 | 1012.2 |
| 20260503210900 | 82 | 52 | 2.0 | 7.0 | 0.00 | 0.00 | 0.00 | 20 | 1012.2 |
| 20260503210503 | 81 | 350 | 2.0 | 6.0 | 0.00 | 0.00 | 0.00 | 18 | 1012.3 |
| 20260503210341 | 81 | 350 | 2.0 | 6.0 | 0.00 | 0.00 | 0.00 | 18 | 1012.3 |
| 20260503205740 | 82 | 100 | 2.0 | 6.0 | 0.00 | 0.00 | 0.00 | 18 | 1012.4 |
| 20260503205214 | 81 | 338 | 2.0 | 8.0 | 0.00 | 0.00 | 0.00 | 18 | 1012.4 |
| 20260503204650 | 81 | 0 | 2.0 | 6.0 | 0.00 | 0.00 | 0.00 | 20 | 1012.5 |
| 20260503204127 | 80 | 0 | 3.0 | 9.0 | 0.00 | 0.00 | 0.00 | 21 | 1012.7 |
| 20260503203602 | 79 | 0 | 4.0 | 10.0 | 0.00 | 0.00 | 0.00 | 20 | 1012.7 |
| 20260503203059 | 79 | 0 | 4.0 | 10.0 | 0.00 | 0.00 | 0.00 | 20 | 1012.7 |
| 20260503202559 | 79 | 0 | 5.0 | 10.0 | 0.00 | 0.00 | 0.00 | 20 | 1012.8 |
| 20260503202046 | 79 | 0 | 5.0 | 10.0 | 0.00 | 0.00 | 0.00 | 19 | 1013.0 |
| 20260503201546 | 80 | 0 | 3.0 | 9.0 | 0.00 | 0.00 | 0.00 | 19 | 1013.0 |
| 20260503201412 | 81 | 48 | 3.0 | 10.0 | 0.00 | 0.00 | 0.00 | 18 | 1013.0 |
| 20260503201341 | 81 | 48 | 3.0 | 10.0 | 0.00 | 0.00 | 0.00 | 18 | 1013.0 |
| 20260503200739 | 80 | 0 | 3.0 | 10.0 | 0.00 | 0.00 | 0.00 | 19 | 1013.1 |
| 20260503200623 | 80 | 0 | 3.0 | 10.0 | 0.00 | 0.00 | 0.00 | 19 | 1013.1 |
| 20260503200243 | 80 | 0 | 4.0 | 11.0 | 0.00 | 0.00 | 0.00 | 20 | 1013.2 |
| 20260503200118 | 80 | 0 | 4.0 | 11.0 | 0.00 | 0.00 | 0.00 | 20 | 1013.2 |
| 20260503195510 | 79 | 0 | 5.0 | 11.0 | 0.00 | 0.00 | 0.00 | 20 | 1013.2 |
| 20260503195225 | 79 | 0 | 5.0 | 10.0 | 0.00 | 0.00 | 0.00 | 20 | 1013.1 |
| 20260503195112 | 79 | 0 | 5.0 | 10.0 | 0.00 | 0.00 | 0.00 | 20 | 1013.1 |
| 20260503194507 | 79 | 0 | 4.0 | 10.0 | 0.00 | 0.00 | 0.00 | 21 | 1013.1 |
| 20260503194008 | 79 | 0 | 4.0 | 12.0 | 0.00 | 0.00 | 0.00 | 21 | 1013.1 |
| 20260503193459 | 78 | 0 | 5.0 | 12.0 | 0.00 | 0.00 | 0.00 | 21 | 1013.2 |
| 20260503192934 | 78 | 0 | 5.0 | 12.0 | 0.00 | 0.00 | 0.00 | 21 | 1013.2 |
| 20260503192657 | 79 | 0 | 5.0 | 12.0 | 0.00 | 0.00 | 0.00 | 20 | 1013.3 |
| 20260503192541 | 79 | 0 | 5.0 | 12.0 | 0.00 | 0.00 | 0.00 | 20 | 1013.3 |
| 20260503191906 | 79 | 0 | 5.0 | 10.0 | 0.00 | 0.00 | 0.00 | 20 | 1013.3 |
| 20260503191339 | 79 | 0 | 4.0 | 11.0 | 0.00 | 0.00 | 0.00 | 21 | 1013.2 |
| 20260503191049 | 79 | 0 | 3.0 | 11.0 | 0.00 | 0.00 | 0.00 | 21 | 1013.3 |
| 20260503190919 | 79 | 0 | 3.0 | 11.0 | 0.00 | 0.00 | 0.00 | 21 | 1013.3 |
| 20260503190246 | 78 | 0 | 4.0 | 10.0 | 0.00 | 0.00 | 0.00 | 21 | 1013.4 |
| 20260503185720 | 77 | 0 | 5.0 | 10.0 | 0.00 | 0.00 | 0.00 | 21 | 1013.5 |
| 20260503185153 | 77 | 0 | 5.0 | 10.0 | 0.00 | 0.00 | 0.00 | 21 | 1013.6 |
| 20260503184650 | 77 | 0 | 5.0 | 11.0 | 0.00 | 0.00 | 0.00 | 21 | 1013.7 |
| 20260503184145 | 77 | 0 | 4.0 | 11.0 | 0.00 | 0.00 | 0.00 | 21 | 1013.7 |
| 20260503183621 | 77 | 0 | 4.0 | 10.0 | 0.00 | 0.00 | 0.00 | 21 | 1013.8 |
| 20260503183049 | 77 | 0 | 5.0 | 12.0 | 0.00 | 0.00 | 0.00 | 21 | 1013.9 |
| 20260503182546 | 77 | 0 | 5.0 | 12.0 | 0.00 | 0.00 | 0.00 | 21 | 1014.2 |
| 20260503182020 | 77 | 0 | 4.0 | 11.0 | 0.00 | 0.00 | 0.00 | 21 | 1014.2 |
| 20260503181453 | 76 | 0 | 4.0 | 11.0 | 0.00 | 0.00 | 0.00 | 22 | 1014.4 |
| 20260503180950 | 76 | 0 | 6.0 | 15.0 | 0.00 | 0.00 | 0.00 | 23 | 1014.5 |
| 20260503180710 | 76 | 0 | 6.0 | 15.0 | 0.00 | 0.00 | 0.00 | 22 | 1014.7 |
| 20260503180541 | 76 | 0 | 6.0 | 15.0 | 0.00 | 0.00 | 0.00 | 22 | 1014.7 |
| 20260503175934 | 76 | 0 | 4.0 | 10.0 | 0.00 | 0.00 | 0.00 | 22 | 1014.7 |
| 20260503175413 | 76 | 0 | 4.0 | 8.0 | 0.00 | 0.00 | 0.00 | 22 | 1014.9 |
| 20260503174913 | 76 | 0 | 4.0 | 11.0 | 0.00 | 0.00 | 0.00 | 25 | 1015.0 |
| 20260503174411 | 75 | 0 | 4.0 | 11.0 | 0.00 | 0.00 | 0.00 | 24 | 1015.2 |
| 20260503173843 | 76 | 0 | 5.0 | 11.0 | 0.00 | 0.00 | 0.00 | 22 | 1015.2 |
| 20260503173319 | 76 | 0 | 4.0 | 11.0 | 0.00 | 0.00 | 0.00 | 22 | 1015.3 |
| 20260503172752 | 77 | 0 | 4.0 | 9.0 | 0.00 | 0.00 | 0.00 | 22 | 1015.3 |
| 20260503172226 | 77 | 0 | 2.0 | 8.0 | 0.00 | 0.00 | 0.00 | 21 | 1015.4 |
| 20260503172037 | 78 | 0 | 1.0 | 4.0 | 0.00 | 0.00 | 0.00 | 21 | 1015.4 |
| 20260503171948 | 78 | 0 | 1.0 | 4.0 | 0.00 | 0.00 | 0.00 | 21 | 1015.4 |
| 20260503171136 | 76 | 0 | 2.0 | 6.0 | 0.00 | 0.00 | 0.00 | 23 | 1015.5 |
| 20260503170610 | 75 | 0 | 3.0 | 6.0 | 0.00 | 0.00 | 0.00 | 22 | 1015.5 |
| 20260503170116 | 76 | 0 | 3.0 | 8.0 | 0.00 | 0.00 | 0.00 | 22 | 1015.6 |
| 20260503150727 | 69 | 0 | 1.0 | 4.0 | 0.00 | 0.00 | 0.00 | 36 | 1015.9 |
| 20260503150202 | 68 | 0 | 1.0 | 5.0 | 0.00 | 0.00 | 0.00 | 34 | 1016.0 |
| 20260503131249 | 50 | 0 | 4.0 | 9.0 | 0.00 | 0.00 | 0.00 | 51 | 1016.1 |
| 20260503130744 | 50 | 0 | 4.0 | 9.0 | 0.00 | 0.00 | 0.00 | 51 | 1016.0 |
| 20260503130237 | 49 | 0 | 4.0 | 9.0 | 0.00 | 0.00 | 0.00 | 51 | 1016.1 |
| 20260503110751 | 44 | 0 | 4.0 | 8.0 | 0.00 | 0.00 | 0.00 | 59 | 1015.4 |
| 20260503110442 | 44 | 0 | 4.0 | 8.0 | 0.00 | 0.00 | 0.00 | 60 | 1015.5 |
| 20260503110326 | 44 | 0 | 4.0 | 8.0 | 0.00 | 0.00 | 0.00 | 60 | 1015.5 |
| 20260503090128 | 49 | 0 | 3.0 | 6.0 | 0.00 | 0.00 | 0.00 | 51 | 1016.8 |
| 20260503081428 | 49 | 0 | 3.0 | 8.0 | 0.00 | 0.00 | 0.00 | 49 | 1017.2 |
| 20260503081405 | 49 | 0 | 3.0 | 8.0 | 0.00 | 0.00 | 0.00 | 49 | 1017.1 |
| 20260503081334 | 49 | 0 | 3.0 | 8.0 | 0.00 | 0.00 | 0.00 | 49 | 1017.2 |
| 20260503080817 | 49 | 0 | 3.0 | 8.0 | 0.00 | 0.00 | 0.00 | 48 | 1017.2 |
| 20260503080439 | 49 | 0 | 3.0 | 8.0 | 0.00 | 0.00 | 0.00 | 48 | 1017.2 |
| 20260503072751 | 50 | 0 | 3.0 | 9.0 | 0.00 | 0.00 | 0.00 | 47 | 1017.2 |
| 20260503072250 | 50 | 0 | 3.0 | 10.0 | 0.00 | 0.00 | 0.00 | 47 | 1017.4 |
| 20260503071723 | 50 | 0 | 3.0 | 10.0 | 0.00 | 0.00 | 0.00 | 46 | 1017.5 |
| 20260503071154 | 50 | 0 | 3.0 | 8.0 | 0.00 | 0.00 | 0.00 | 46 | 1017.5 |
| 20260503070651 | 50 | 0 | 3.0 | 8.0 | 0.00 | 0.00 | 0.00 | 46 | 1017.5 |
| 20260503070129 | 50 | 0 | 2.0 | 8.0 | 0.00 | 0.00 | 0.00 | 46 | 1017.5 |
| 20260503054835 | 51 | 0 | 3.0 | 8.0 | 0.00 | 0.00 | 0.00 | 45 | 1017.6 |
| 20260503054311 | 51 | 0 | 3.0 | 8.0 | 0.00 | 0.00 | 0.00 | 44 | 1017.5 |
| 20260503053812 | 51 | 0 | 4.0 | 10.0 | 0.00 | 0.00 | 0.00 | 44 | 1017.6 |
| 20260503053308 | 51 | 0 | 4.0 | 10.0 | 0.00 | 0.00 | 0.00 | 44 | 1017.6 |
| 20260503052808 | 51 | 0 | 3.0 | 10.0 | 0.00 | 0.00 | 0.00 | 44 | 1017.6 |
| 20260503052305 | 52 | 0 | 4.0 | 10.0 | 0.00 | 0.00 | 0.00 | 44 | 1017.7 |
| 20260503051801 | 52 | 0 | 4.0 | 11.0 | 0.00 | 0.00 | 0.00 | 43 | 1017.6 |
| 20260503051502 | 52 | 0 | 4.0 | 11.0 | 0.00 | 0.00 | 0.00 | 43 | 1017.6 |
| 20260503051343 | 52 | 0 | 4.0 | 11.0 | 0.00 | 0.00 | 0.00 | 43 | 1017.6 |
| 20260503051000 | 52 | 0 | 3.0 | 9.0 | 0.00 | 0.00 | 0.00 | 43 | 1017.7 |
| 20260503050840 | 52 | 0 | 3.0 | 9.0 | 0.00 | 0.00 | 0.00 | 43 | 1017.7 |
| 20260503050228 | 53 | 0 | 4.0 | 10.0 | 0.00 | 0.00 | 0.00 | 43 | 1017.7 |
| 20260503045715 | 53 | 0 | 3.0 | 10.0 | 0.00 | 0.00 | 0.00 | 42 | 1017.7 |
| 20260503045445 | 53 | 0 | 4.0 | 12.0 | 0.00 | 0.00 | 0.00 | 42 | 1017.7 |
| 20260503045315 | 53 | 0 | 4.0 | 12.0 | 0.00 | 0.00 | 0.00 | 42 | 1017.7 |
| 20260503044710 | 54 | 0 | 4.0 | 12.0 | 0.00 | 0.00 | 0.00 | 41 | 1017.6 |
| 20260503044145 | 54 | 0 | 4.0 | 11.0 | 0.00 | 0.00 | 0.00 | 40 | 1017.8 |
| 20260503043622 | 55 | 0 | 4.0 | 12.0 | 0.00 | 0.00 | 0.00 | 40 | 1017.8 |
| 20260503043103 | 55 | 0 | 4.0 | 12.0 | 0.00 | 0.00 | 0.00 | 39 | 1017.7 |
| 20260503042541 | 55 | 0 | 3.0 | 11.0 | 0.00 | 0.00 | 0.00 | 39 | 1017.7 |
| 20260503042023 | 55 | 0 | 2.0 | 10.0 | 0.00 | 0.00 | 0.00 | 39 | 1017.8 |
| 20260503041522 | 55 | 0 | 2.0 | 6.0 | 0.00 | 0.00 | 0.00 | 39 | 1017.8 |
| 20260503041243 | 56 | 0 | 2.0 | 6.0 | 0.00 | 0.00 | 0.00 | 38 | 1017.9 |
| 20260503041121 | 56 | 0 | 2.0 | 6.0 | 0.00 | 0.00 | 0.00 | 38 | 1017.9 |
| 20260503040516 | 56 | 0 | 2.0 | 6.0 | 0.00 | 0.00 | 0.00 | 38 | 1017.9 |
| 20260503040010 | 56 | 0 | 2.0 | 5.0 | 0.00 | 0.00 | 0.00 | 39 | 1017.9 |
| 20260503035508 | 56 | 0 | 2.0 | 5.0 | 0.00 | 0.00 | 0.00 | 39 | 1018.0 |
| 20260503035017 | 57 | 0 | 1.0 | 5.0 | 0.00 | 0.00 | 0.00 | 39 | 1018.0 |
| 20260503034505 | 57 | 0 | 1.0 | 3.0 | 0.00 | 0.00 | 0.00 | 39 | 1018.1 |
| 20260503034221 | 58 | 0 | 1.0 | 5.0 | 0.00 | 0.00 | 0.00 | 38 | 1018.0 |
| 20260503034104 | 58 | 0 | 1.0 | 5.0 | 0.00 | 0.00 | 0.00 | 38 | 1018.0 |
| 20260503033458 | 58 | 0 | 1.0 | 4.0 | 0.00 | 0.00 | 0.00 | 38 | 1017.9 |
| 20260503032956 | 59 | 0 | 1.0 | 2.0 | 0.00 | 0.00 | 0.00 | 37 | 1017.9 |
| 20260503032434 | 59 | 0 | 1.0 | 3.0 | 0.00 | 0.00 | 0.00 | 37 | 1017.9 |
| 20260503032141 | 60 | 0 | 1.0 | 2.0 | 0.00 | 0.00 | 0.00 | 36 | 1017.8 |
| 20260503032015 | 60 | 0 | 1.0 | 2.0 | 0.00 | 0.00 | 0.00 | 36 | 1017.8 |
| 20260503031349 | 60 | 0 | 1.0 | 2.0 | 0.00 | 0.00 | 0.00 | 36 | 1017.9 |
| 20260503030827 | 61 | 0 | 1.0 | 3.0 | 0.00 | 0.00 | 0.00 | 35 | 1017.8 |
| 20260503030310 | 61 | 0 | 1.0 | 3.0 | 0.00 | 0.00 | 0.00 | 35 | 1017.8 |
| 20260503025811 | 61 | 0 | 1.0 | 2.0 | 0.00 | 0.00 | 0.00 | 34 | 1017.8 |
| 20260503025311 | 62 | 0 | 0.0 | 3.0 | 0.00 | 0.00 | 0.00 | 34 | 1017.8 |
| 20260503024757 | 62 | 0 | 1.0 | 3.0 | 0.00 | 0.00 | 0.00 | 34 | 1017.6 |
| 20260503024259 | 63 | 0 | 0.0 | 2.0 | 0.00 | 0.00 | 0.00 | 33 | 1017.6 |
| 20260503023744 | 63 | 0 | 0.0 | 3.0 | 0.00 | 0.00 | 0.00 | 33 | 1017.6 |
| 20260503023219 | 64 | 0 | 0.0 | 2.0 | 0.00 | 0.00 | 0.00 | 32 | 1017.7 |
| 20260503022657 | 64 | 0 | 0.0 | 3.0 | 0.00 | 0.00 | 0.00 | 32 | 1017.6 |